Volver al catálogo

COSMOS 1275 DEB

LostPO
NORAD 42139·DEBRIS·🇷🇺 Russia

Lanzado Jun 4, 1981 desde Plesetsk Cosmodrome

Loading…

Próximos Pases (próximas 24 horas)

TLE

ObsoletoSource: Space-Track

Época: Sep 21, 2024, 12:47 UTC

1 42139U 81053RB  24265.53264535  .00002484  00000-0  18584-2 0  9994
2 42139  83.0047 353.2947 0047719   7.9249 352.2660 13.93746586501917

Sigue COSMOS 1275 DEB en tiempo real con AllMySat

Download on the App Store